Preview of NWS' New Version of Forecast
This preview is not operational and should not be used for support decisions.

Regional Weather Roundup (RWR)

Issued by National Weather Service (NWS)

                            
000
ASUS43 KLSX 240607
RWRMO 

WEATHER SUMMARY FOR MISSOURI
NATIONAL WEATHER SERVICE SPRINGFIELD MO
100 AM CDT SUN MAR 24 2019

NOTE: "FAIR" INDICATES FEW OR NO CLOUDS BELOW 12,000 FEET WITH NO
       SIGNIFICANT WEATHER AND/OR OBSTRUCTIONS TO VISIBILITY.
       CURRENT SKY AND/OR WEATHER CONDITIONS ARE NOT AVAILABLE FOR
       CHILLICOTHE AND FARMINGTON.

MOZ001>031-035>038-043-044-053-054-240700-
...NORTHERN AND WESTERN MISSOURI...
  
CITY           SKY/WX    TMP DP  RH WIND       PRES   REMARKS
KANSAS CTY INT MOCLDY    49  43  80 S15       29.99F                  
6HR MIN TEMP:  49; 6HR MAX TEMP:  57; 6HR PCP: TRACE;                

KANSAS C DTWN  CLEAR     52  43  71 VRB5G18   30.01S                  
6HR MIN TEMP:  52; 6HR MAX TEMP:  59; 6HR PCP: TRACE;                

LEE'S SUMMIT   PTCLDY    49  43  80 S16G25    30.00F                  
6HR MIN TEMP:  49; 6HR MAX TEMP:  56; 6HR PCP: TRACE;                

ST JOSEPH        N/A    N/A N/A N/A MISG      30.00S                  
CHILLICOTHE      N/A     52  45  77 SE6       30.06F                  
6HR MIN TEMP:  51; 6HR MAX TEMP:  58; 6HR PCP:  0.01;                

KIRKSVILLE     CLOUDY    47  42  83 SE6       30.08F                  
6HR MIN TEMP:  46; 6HR MAX TEMP:  53; 6HR PCP:  0.01;                

     
$$
MOZ066>068-077>081-088>096-101>105-240700-
...SOUTHWEST MISSOURI...
  
CITY           SKY/WX    TMP DP  RH WIND       PRES   REMARKS
SPRINGFIELD    RAIN      49  45  86 S24G35    30.06F FOG              
6HR MIN TEMP:  48; 6HR MAX TEMP:  50; 6HR PCP:  0.14;                

JOPLIN         LGT RAIN  51  47  86 SE12      30.03S                  
6HR MIN TEMP:  50; 6HR MAX TEMP:  52; 6HR PCP:  0.02;                

BRANSON        CLOUDY    46  46 100 SE13G18   30.08F                  
               
$$
MOZ032>034-039>042-045>050-055>058-069>072-240700-
...CENTRAL MISSOURI...  
  
CITY           SKY/WX    TMP DP  RH WIND       PRES   REMARKS
COLUMBIA       MOCLDY    50  43  77 S18G28    30.08F                  
6HR MIN TEMP:  49; 6HR MAX TEMP:  56;                                

JEFFERSON CITY CLOUDY    49  44  83 SE10      30.11F                  
6HR MIN TEMP:  49; 6HR MAX TEMP:  60; 6HR PCP:  0.01;                

ROLLA          CLOUDY    47  42  83 SE10      30.12F                  
6HR MIN TEMP:  46; 6HR MAX TEMP:  50; 6HR PCP:  0.12;                

SEDALIA        PTCLDY    50  46  86 S14G26    30.04F                  
6HR MIN TEMP:  48; 6HR MAX TEMP:  53;                                

WHITEMAN AFB   MOCLDY    49  47  90 S12       30.00F                  
WARRENSBURG    CLOUDY    48  43  81 SE10      30.04F                  
OSAGE BEACH    PTCLDY    48  45  89 SE10      30.09F                  
               
$$
MOZ051-052-059>065-240700-
...EAST CENTRAL MISSOURI...
  
CITY           SKY/WX    TMP DP  RH WIND       PRES   REMARKS
ST LOUIS INTL  CLOUDY    50  43  77 SW3       30.16F                  
6HR MIN TEMP:  49; 6HR MAX TEMP:  57; 6HR PCP:  0.06;                

SPIRIT OF STL  CLOUDY    51  43  74 VRB3      30.15R                  
6HR MIN TEMP:  49; 6HR MAX TEMP:  58; 6HR PCP:  0.03;                

ST CHARLES     CLOUDY    48  45  89 SE5       30.16F                  
6HR MIN TEMP:  48; 6HR MAX TEMP:  55; 6HR PCP:  0.06;                

                   
$$
MOZ072>076-082>087-097>100-106>115-240700-
...SOUTH CENTRAL AND SOUTHEAST MISSOURI...
  
CITY           SKY/WX    TMP DP  RH WIND       PRES   REMARKS
CAPE GIRARDEAU CLOUDY    51  39  63 CALM      30.18F                  
6HR MIN TEMP:  51; 6HR MAX TEMP:  57;                                

FARMINGTON     LGT RAIN  46  45  96 E3        30.18F                  
6HR MIN TEMP:  46; 6HR MAX TEMP:  48; 6HR PCP:  0.11;                

POPLAR BLUFF   CLOUDY    52  42  69 CALM      30.17F                  
6HR MIN TEMP:  52; 6HR MAX TEMP:  57; 6HR PCP: TRACE;                

WEST PLAINS    LGT RAIN  47  44  90 E7        30.15F                  
6HR MIN TEMP:  47; 6HR MAX TEMP:  50; 6HR PCP:  0.14;                

                                       
$$